DLH205 MMMX-LIRF

Flight info

Callsign DLH205
Flight time N/A
Altitude 35000
Route NOXO3A/05L NOXOS DCT KIROG DCT AVALI DCT SNAKR DCT SUMRS DCT 35N060W DCT 40N040W DCT 42N030W DCT SIVIR DCT VALKU DCT MOGBO DCT ELKAP ELKA3A
Aircraft A388/J-SADE2E3FGHIJ3J4J5M1RWXY/LB1D1

Departure

Time 2026-05-06 03:50
Airport Mexico City Benito Juárez International Airport (MMMX)

Arrival

Time N/A
Airport Rome–Fiumicino Leonardo da Vinci International Airport (LIRF)
Time Latitude Longitude Altitude Speed Heading
2026-05-06 03:10 19.42489 -99.07867 7330 ft 0 kts 195°
2026-05-06 03:34 19.42490 -99.07867 7330 ft 1 kts 195°
2026-05-06 03:34 19.42503 -99.07864 7330 ft 2 kts 175°
2026-05-06 03:34 19.42518 -99.07866 7330 ft 2 kts 166°
2026-05-06 03:34 19.42533 -99.07870 7330 ft 2 kts 169°
2026-05-06 03:35 19.42548 -99.07873 7330 ft 2 kts 171°
2026-05-06 03:35 19.42562 -99.07875 7330 ft 2 kts 172°
2026-05-06 03:35 19.42577 -99.07878 7330 ft 2 kts 195°
2026-05-06 03:35 19.42589 -99.07872 7330 ft 1 kts 242°
2026-05-06 03:36 19.42593 -99.07866 7330 ft 0 kts 241°
2026-05-06 03:41 19.42589 -99.07873 7330 ft 3 kts 240°
2026-05-06 03:41 19.42574 -99.07899 7330 ft 5 kts 239°
2026-05-06 03:41 19.42551 -99.07939 7330 ft 7 kts 239°
2026-05-06 03:42 19.42522 -99.07990 7330 ft 9 kts 239°
2026-05-06 03:42 19.42488 -99.08051 7330 ft 10 kts 239°
2026-05-06 03:42 19.42451 -99.08116 7330 ft 11 kts 239°
2026-05-06 03:42 19.42413 -99.08184 7330 ft 9 kts 246°
2026-05-06 03:43 19.42430 -99.08233 7330 ft 7 kts 322°
2026-05-06 03:43 19.42475 -99.08259 7330 ft 8 kts 331°
2026-05-06 03:43 19.42524 -99.08289 7330 ft 8 kts 324°
2026-05-06 03:43 19.42562 -99.08337 7330 ft 9 kts 300°
2026-05-06 03:44 19.42582 -99.08383 7330 ft 5 kts 294°
2026-05-06 03:44 19.42590 -99.08401 7330 ft 1 kts 294°
2026-05-06 03:44 19.42591 -99.08404 7330 ft 0 kts 294°
2026-05-06 03:44 19.42592 -99.08406 7330 ft 0 kts 294°
2026-05-06 03:45 19.42592 -99.08408 7330 ft 0 kts 294°
2026-05-06 03:45 19.42593 -99.08410 7330 ft 0 kts 294°
2026-05-06 03:45 19.42594 -99.08412 7330 ft 0 kts 294°
2026-05-06 03:45 19.42595 -99.08414 7330 ft 0 kts 294°
2026-05-06 03:46 19.42596 -99.08416 7330 ft 0 kts 294°
2026-05-06 03:46 19.42597 -99.08418 7330 ft 0 kts 294°
2026-05-06 03:46 19.42597 -99.08420 7330 ft 0 kts 294°
2026-05-06 03:46 19.42598 -99.08422 7330 ft 0 kts 294°
2026-05-06 03:47 19.42599 -99.08424 7330 ft 0 kts 294°
2026-05-06 03:47 19.42600 -99.08426 7330 ft 0 kts 294°
2026-05-06 03:47 19.42605 -99.08439 7330 ft 5 kts 294°
2026-05-06 03:47 19.42622 -99.08478 7330 ft 7 kts 294°
2026-05-06 03:48 19.42644 -99.08531 7330 ft 9 kts 295°
2026-05-06 03:48 19.42690 -99.08568 7330 ft 8 kts 356°
2026-05-06 03:48 19.42728 -99.08535 7330 ft 6 kts 59°
2026-05-06 03:48 19.42804 -99.08398 7330 ft 44 kts 59°
2026-05-06 03:49 19.43044 -99.07972 7330 ft 91 kts 59°
2026-05-06 03:49 19.43445 -99.07255 7330 ft 136 kts 59°
2026-05-06 03:49 19.44004 -99.06259 7372 ft 176 kts 57°
2026-05-06 03:49 19.44654 -99.05142 7829 ft 182 kts 53°
2026-05-06 03:50 19.45408 -99.04022 8219 ft 194 kts 55°
2026-05-06 03:50 19.46134 -99.02783 8666 ft 205 kts 57°
2026-05-06 03:50 19.46907 -99.01470 9078 ft 219 kts 57°
2026-05-06 03:50 19.47730 -99.00080 9469 ft 228 kts 57°
2026-05-06 03:51 19.48601 -98.98599 9763 ft 250 kts 57°
2026-05-06 03:51 19.49531 -98.96996 10332 ft 264 kts 58°
2026-05-06 03:51 19.50494 -98.95277 10868 ft 278 kts 59°
2026-05-06 03:51 19.51523 -98.93441 11324 ft 300 kts 59°
2026-05-06 03:52 19.52577 -98.91531 11990 ft 306 kts 63°
2026-05-06 03:52 19.53398 -98.89456 12622 ft 310 kts 70°
2026-05-06 03:52 19.54067 -98.87290 13255 ft 313 kts 75°
2026-05-06 03:52 19.54639 -98.85077 13883 ft 314 kts 75°
2026-05-06 03:53 19.55101 -98.83331 14384 ft 323 kts 75°
2026-05-06 03:53 19.55720 -98.80979 15073 ft 340 kts 75°
2026-05-06 03:53 19.56368 -98.78514 15749 ft 359 kts 75°
2026-05-06 03:53 19.57054 -98.75910 16424 ft 379 kts 75°
2026-05-06 03:54 19.57717 -98.73150 17094 ft 399 kts 78°
2026-05-06 03:54 19.58303 -98.70212 17764 ft 418 kts 80°
2026-05-06 03:54 19.58825 -98.67172 18406 ft 424 kts 81°
2026-05-06 03:54 19.59366 -98.64094 19033 ft 429 kts 80°
2026-05-06 03:55 19.59911 -98.60965 19662 ft 433 kts 80°
2026-05-06 03:55 19.60458 -98.57833 20286 ft 436 kts 80°
2026-05-06 03:55 19.61007 -98.54676 20910 ft 440 kts 81°
2026-05-06 03:55 19.61380 -98.51473 21498 ft 442 kts 87°
2026-05-06 03:56 19.61470 -98.48218 22006 ft 445 kts 90°
2026-05-06 03:56 19.61425 -98.44940 22506 ft 448 kts 92°
2026-05-06 03:56 19.61347 -98.41644 23006 ft 450 kts 92°
2026-05-06 03:56 19.61262 -98.38311 23508 ft 453 kts 92°
2026-05-06 03:57 19.61174 -98.34977 24006 ft 456 kts 92°
2026-05-06 03:57 19.61084 -98.31613 24509 ft 459 kts 92°
2026-05-06 03:57 19.60994 -98.28226 25012 ft 464 kts 92°
2026-05-06 03:57 19.60901 -98.24807 25511 ft 468 kts 92°
2026-05-06 03:58 19.60807 -98.21354 25965 ft 473 kts 93°
2026-05-06 03:58 19.60710 -98.17852 26420 ft 477 kts 93°
2026-05-06 03:58 19.60612 -98.14295 26878 ft 481 kts 93°
2026-05-06 03:58 19.60513 -98.10721 27333 ft 486 kts 93°
2026-05-06 03:59 19.60412 -98.07129 27787 ft 490 kts 93°
2026-05-06 03:59 19.60418 -98.03517 28119 ft 495 kts 86°
2026-05-06 03:59 19.61236 -97.99979 28341 ft 499 kts 69°
2026-05-06 03:59 19.62673 -97.96639 28636 ft 501 kts 64°
2026-05-06 04:00 19.64282 -97.93378 28884 ft 502 kts 63°
2026-05-06 04:00 19.65946 -97.90115 29134 ft 502 kts 63°
2026-05-06 04:00 19.67597 -97.86872 29379 ft 502 kts 63°
2026-05-06 04:00 19.69254 -97.83614 29627 ft 502 kts 63°
2026-05-06 04:01 19.70909 -97.80362 29874 ft 502 kts 63°
2026-05-06 04:01 19.72561 -97.77112 30120 ft 503 kts 63°
2026-05-06 04:01 19.74214 -97.73858 30368 ft 502 kts 63°
2026-05-06 04:01 19.75861 -97.70613 30616 ft 501 kts 63°
2026-05-06 04:02 19.77516 -97.67353 30864 ft 500 kts 62°
2026-05-06 04:02 19.79157 -97.64119 31111 ft 500 kts 62°
2026-05-06 04:02 19.80793 -97.60890 31359 ft 498 kts 62°
2026-05-06 04:02 19.82423 -97.57672 31606 ft 497 kts 62°
2026-05-06 04:03 19.84050 -97.54462 31852 ft 496 kts 62°
2026-05-06 04:03 19.85672 -97.51258 32099 ft 495 kts 62°
2026-05-06 04:03 19.87290 -97.48058 32346 ft 494 kts 62°
2026-05-06 04:03 19.88915 -97.44844 32596 ft 492 kts 62°
2026-05-06 04:04 19.90523 -97.41660 32843 ft 491 kts 62°
2026-05-06 04:04 19.92128 -97.38483 33090 ft 490 kts 62°
2026-05-06 04:04 19.93727 -97.35315 33338 ft 488 kts 62°
2026-05-06 04:04 19.95322 -97.32153 33583 ft 487 kts 62°
2026-05-06 04:05 19.96911 -97.29002 33827 ft 486 kts 63°
2026-05-06 04:05 19.98494 -97.25860 34071 ft 485 kts 63°
2026-05-06 04:05 20.00086 -97.22699 34317 ft 483 kts 63°
2026-05-06 04:05 20.01664 -97.19563 34558 ft 484 kts 63°
2026-05-06 04:06 20.03242 -97.16428 34798 ft 483 kts 63°
2026-05-06 04:06 20.04820 -97.13287 34845 ft 486 kts 63°
2026-05-06 04:06 20.07993 -97.06973 34852 ft 487 kts 63°
2026-05-06 04:07 20.11179 -97.00623 34855 ft 487 kts 63°
2026-05-06 04:07 20.14352 -96.94292 34861 ft 487 kts 63°
2026-05-06 04:08 20.17520 -96.87964 34862 ft 487 kts 63°
2026-05-06 04:08 20.20686 -96.81633 34862 ft 487 kts 63°
2026-05-06 04:09 20.23859 -96.75281 34862 ft 487 kts 63°
2026-05-06 04:09 20.27019 -96.68949 34863 ft 487 kts 63°
2026-05-06 04:10 20.30175 -96.62617 34863 ft 486 kts 63°
2026-05-06 04:10 20.33340 -96.56260 34861 ft 486 kts 63°
2026-05-06 04:11 20.36490 -96.49925 34847 ft 486 kts 63°
2026-05-06 04:11 20.39638 -96.43587 34832 ft 486 kts 63°
2026-05-06 04:12 20.42784 -96.37246 34818 ft 486 kts 63°
2026-05-06 04:12 20.45938 -96.30882 34802 ft 486 kts 63°
2026-05-06 04:13 20.49079 -96.24538 34789 ft 486 kts 63°
2026-05-06 04:13 20.52226 -96.18173 34799 ft 486 kts 63°
2026-05-06 04:14 20.55373 -96.11800 34813 ft 486 kts 63°
2026-05-06 04:14 20.58512 -96.05436 34828 ft 486 kts 63°
2026-05-06 04:15 20.61646 -95.99077 34842 ft 486 kts 63°
2026-05-06 04:15 20.64775 -95.92719 34844 ft 486 kts 63°
2026-05-06 04:16 20.67911 -95.86341 34845 ft 486 kts 63°